Temperature
7 8 8 10 11 12 13 13 13 14 15 14 14 14 15 16 16 17 17 18 18 18 18 17 17 17 16 16 16 16 16 16 16 15 15 15 16 16 16 16 16 16 15 15
7 8 10 11 11 12 13 13 14 14 15 14 14 14 15 16 16 16 17 17 17 17 17 17 16 16 16 16 16 16 16 16 16 15 15 15 15 16 16 16 16 16 16 15
7 9 10 11 11 11 12 12 13 13 13 14 14 13 14 15 16 16 15 16 16 16 16 15 15 15 15 15 15 15 15 15 16 16 15 15 15 15 15 15 15 16 15 15
7 9 10 10 10 11 11 13 14 13 12 11 12 11 13 14 14 14 15 15 15 15 14 14 13 13 13 14 14 14 15 15 15 15 15 15 15 14 15 15 14 14 14 14
7 8 9 9 10 11 11 12 13 12 12 12 12 11 13 14 13 13 13 14 14 13 13 13 12 12 12 12 13 13 14 14 14 14 14 14 14 14 14 14 14 14 14 13
7 8 8 9 10 11 11 11 11 11 11 10 12 11 13 13 13 13 13 13 13 12 12 11 11 11 11 12 12 12 12 13 13 13 13 13 13 13 13 13 13 13 13 13
7 7 8 9 9 9 10 9 9 9 9 9 13 12 13 14 14 13 12 12 12 11 11 11 10 10 10 11 11 12 12 12 12 12 12 12 12 12 12 12 12 12 12 12
7 7 8 8 9 9 9 9 9 9 9 11 12 12 13 13 13 13 13 12 12 11 11 10 10 10 9 10 10 10 11 11 11 11 12 12 11 11 11 11 11 11 11 12
8 7 8 9 9 10 9 9 10 9 11 11 10 12 11 12 12 12 12 12 11 11 10 10 9 9 9 9 9 10 10 10 10 10 10 10 10 10 10 11 11 11 11 11
9 7 8 8 9 9 10 10 9 8 9 11 12 12 10 10 10 11 11 12 11 11 10 9 9 8 8 8 9 9 9 9 9 9 9 9 9 10 10 9 10 10 10 10
9 7 7 8 8 8 9 9 9 9 10 9 11 11 13 11 11 11 11 12 11 10 10 9 8 8 8 8 8 8 8 8 8 8 8 8 8 8 8 8 9 9 9 9
10 8 7 8 8 9 9 9 9 8 9 10 9 10 13 11 11 12 12 11 11 10 9 8 8 7 7 7 7 7 7 7 7 7 7 7 7 7 7 7 7 7 8 8
10 8 7 7 7 8 8 9 10 9 8 9 9 10 12 11 11 12 12 11 10 9 8 8 7 6 6 6 6 6 6 6 7 7 7 7 7 6 6 6 6 6 6 7
10 8 8 8 9 8 8 9 9 8 7 9 10 10 11 11 11 11 11 11 10 9 8 7 6 6 5 5 5 5 5 6 6 6 6 6 6 5 5 5 6 6 6 6
10 8 9 9 10 9 9 9 9 8 8 8 10 11 11 11 11 11 11 11 10 9 8 7 6 5 5 4 4 4 4 5 5 5 5 5 5 5 4 5 5 5 5 5
10 9 8 8 9 9 9 9 9 9 9 9 10 10 12 12 12 12 11 10 9 9 7 6 5 5 4 4 3 3 4 4 4 4 4 4 4 4 4 4 4 4 4 4
9 9 8 8 9 8 7 9 9 9 9 9 9 10 11 11 11 11 11 10 9 8 7 6 5 4 3 3 3 3 3 3 3 3 3 3 3 3 3 3 3 3 2 2
9 9 8 8 8 7 9 10 11 10 10 10 10 11 11 11 11 11 10 10 9 8 6 5 4 3 3 2 2 2 2 2 2 2 2 2 2 2 2 2 2 1 1 1
9 9 8 7 8 8 9 10 10 9 9 10 10 11 11 10 10 9 9 9 8 7 6 5 4 3 2 2 1 1 1 1 1 1 1 1 1 1 1 1 1 1 0 0
9 8 7 7 7 8 9 9 10 10 9 10 10 10 10 10 8 8 8 8 7 6 5 4 3 2 2 1 1 1 1 1 1 1 1 1 1 1 1 0 0 0 -0 -0
7 7 7 7 7 8 9 9 9 8 8 9 10 10 10 9 8 8 7 7 6 5 4 3 3 2 1 1 1 1 1 0 0 0 0 0 0 0 0 0 -0 -0 -1 -1
7 7 7 7 7 7 9 9 9 8 9 9 9 9 9 8 8 7 6 6 5 4 3 3 2 1 1 1 1 0 0 0 0 0 0 0 0 0 0 -0 -0 -1 -1 -1
8 8 8 8 8 9 9 9 9 9 9 8 8 8 8 8 7 6 6 5 4 4 3 2 2 1 1 1 1 1 0 0 0 0 0 0 0 -0 -0 -0 -0 -1 -1 -1
9 9 9 8 9 10 9 9 8 8 8 8 8 7 7 7 7 6 5 5 4 3 3 2 2 1 1 1 0 1 0 0 0 0 0 0 -0 -0 -0 -1 -1 -1 -1 -1
9 8 8 8 9 9 9 8 8 7 7 7 7 7 7 7 6 6 5 5 4 4 3 2 2 2 1 1 1 1 0 0 0 0 0 -0 -0 -0 -0 -0 -1 -1 -1 -1
8 8 7 7 9 8 8 7 7 7 6 6 6 6 6 6 6 5 5 4 4 3 3 3 2 2 2 1 1 1 1 0 0 0 0 0 -0 -0 -0 -0 -1 -1 -1 -2
Wind_Speed
7 8 12 16 17 11 12 14 14 13 11 13 13 13 11 8 7 8 9 9 8 7 5 3 3 2 2 1 1 2 3 5 6 6 6 6 7 7 6 6 9 10 11 12
6 11 13 13 15 13 9 10 11 7 8 10 10 13 11 9 9 7 7 7 5 3 2 2 3 3 2 1 1 2 2 2 2 3 5 5 5 6 7 6 8 12 12 11
8 6 11 13 14 14 10 9 8 7 6 5 6 9 12 8 7 6 6 5 3 1 1 2 3 3 3 3 3 3 3 2 2 2 1 2 3 3 4 6 7 9 12 12
4 5 9 11 13 11 9 6 5 8 7 6 8 5 11 13 10 10 9 7 5 3 3 4 4 4 4 3 4 4 4 4 3 2 1 2 3 4 5 5 5 7 10 11
4 6 9 11 12 10 3 1 2 5 6 4 8 6 5 11 11 11 9 7 6 5 5 5 5 5 5 4 3 4 4 4 4 4 3 2 3 4 3 3 5 6 7 8
1 2 3 5 5 6 4 3 3 1 3 5 9 8 5 8 12 11 9 8 7 6 6 6 5 4 4 4 3 3 3 3 4 4 4 3 4 4 4 5 5 5 4 5
2 2 1 2 6 6 6 6 5 4 4 6 8 7 4 6 11 12 11 9 8 7 6 5 5 4 5 5 3 3 3 4 4 4 4 4 4 4 4 5 5 5 4 3
5 4 4 3 4 6 8 5 2 4 6 4 3 6 2 8 10 11 10 9 7 7 6 6 6 5 4 5 4 4 4 4 5 5 5 5 5 3 3 4 4 4 3 3
4 4 4 4 2 5 6 5 1 2 3 3 6 4 5 7 9 9 9 9 8 7 7 6 6 5 5 5 5 5 5 5 6 6 6 6 6 5 5 5 5 4 4 4
3 6 5 2 2 0 0 2 2 2 2 3 7 8 9 13 11 10 10 9 8 7 7 7 6 5 5 5 4 5 6 6 6 6 6 6 6 6 6 5 6 6 6 5
5 5 5 4 4 5 4 2 2 3 3 2 2 1 1 15 12 10 9 8 8 7 6 6 5 5 4 4 5 6 6 6 6 6 6 7 6 7 7 6 7 6 6 7
2 4 4 3 1 2 3 5 5 3 3 3 2 1 2 10 10 9 8 8 7 7 6 5 5 4 4 5 5 6 6 6 6 6 6 7 7 7 7 8 8 7 7 7
3 4 5 3 2 3 4 5 5 1 1 2 2 2 4 9 8 7 7 7 7 7 6 5 5 4 5 5 5 5 6 6 6 6 7 7 7 7 8 8 8 8 8 9
1 2 1 1 2 6 6 8 7 5 4 4 3 5 6 8 8 7 7 7 6 7 6 5 4 5 5 4 5 5 6 5 5 6 7 7 7 8 8 8 9 9 9 10
1 0 1 1 2 3 5 8 10 9 7 4 1 4 8 9 8 7 6 6 6 7 6 6 4 4 5 5 5 5 5 5 6 6 7 7 7 7 8 8 9 9 10 10
1 0 1 1 3 3 5 7 10 11 11 8 4 3 2 6 5 5 5 6 6 6 7 6 6 5 5 5 4 5 5 5 6 7 7 7 7 7 8 8 9 9 10 10
1 1 1 2 3 2 7 11 12 10 8 9 9 6 5 5 5 4 4 4 5 6 7 7 6 6 6 5 5 5 5 5 6 6 7 7 7 7 8 9 9 9 9 10
1 1 1 1 1 5 2 2 4 9 9 8 6 4 4 3 2 2 3 3 5 7 7 7 6 6 6 6 6 6 6 6 6 6 6 6 6 7 8 8 9 8 7 8
2 1 2 2 4 5 4 4 3 4 5 9 9 5 2 2 0 1 3 5 6 6 7 7 7 7 6 6 6 6 6 6 6 6 6 5 6 7 7 8 7 6 7 7
2 2 2 2 2 3 3 4 2 1 2 2 6 6 4 4 2 3 5 7 7 7 7 7 6 7 7 6 6 7 6 6 6 5 6 6 6 7 7 7 6 6 6 7
3 3 4 4 3 3 3 4 3 2 2 4 4 4 4 2 2 5 7 6 7 7 7 7 7 6 6 6 6 7 6 6 6 6 6 6 6 6 6 6 5 5 5 5
6 4 5 4 4 4 4 4 1 2 4 4 4 4 4 4 5 5 6 7 8 7 7 7 6 6 6 6 6 7 6 6 6 6 6 6 6 5 5 5 4 4 4 5
5 4 2 4 3 3 3 3 4 4 3 3 3 4 3 3 3 5 6 7 7 8 7 7 7 7 6 5 7 7 6 6 6 6 6 5 5 4 4 4 4 3 3 3
4 2 2 3 2 5 5 4 4 4 3 4 3 2 2 1 2 4 5 7 7 8 8 7 8 8 7 6 7 7 8 7 7 7 6 5 5 4 4 3 3 3 3 3
2 4 3 5 4 3 4 4 4 4 4 4 3 2 2 0 1 3 4 7 7 8 8 8 8 8 8 8 8 8 8 8 7 7 6 5 5 5 4 4 4 5 4 3
4 5 4 3 1 2 4 6 5 4 3 3 2 2 2 1 2 2 4 6 7 8 8 8 8 9 9 9 9 9 9 8 8 6 6 5 4 4 4 4 4 6 4 5
Wind_Direction
178 188 198 198 202 211 200 203 205 205 181 191 212 225 228 205 204 226 237 239 227 216 199 159 133 108 113 144 245 246 222 205 193 190 192 195 205 211 217 224 232 232 227 217
177 208 205 200 205 226 239 221 211 181 164 182 214 227 227 216 208 215 238 249 239 218 178 136 114 91 65 50 275 269 259 245 228 202 199 200 203 209 212 213 223 228 232 233
193 198 201 203 203 213 229 228 207 159 151 200 230 234 222 210 208 211 230 249 271 258 162 125 107 93 70 44 16 351 336 319 287 271 238 227 206 208 210 215 217 219 223 227
206 214 196 199 204 202 211 228 200 161 157 203 204 235 212 196 198 206 207 205 202 170 123 97 86 84 82 55 23 358 341 335 333 328 287 251 232 227 226 224 222 218 216 221
183 185 188 200 202 198 189 187 168 170 203 232 194 233 227 170 186 194 188 176 158 137 118 101 85 78 81 69 38 3 350 348 347 344 329 287 269 260 265 263 253 242 229 222
156 136 186 197 185 165 137 118 99 147 223 243 209 212 223 185 185 172 158 145 136 126 120 116 112 104 91 77 50 11 359 3 4 353 340 320 295 289 291 286 278 269 257 240
132 142 150 150 144 149 168 152 147 170 199 233 200 202 251 166 153 148 144 140 137 139 135 127 115 97 88 75 50 18 22 18 10 1 350 340 326 313 296 288 281 283 280 273
157 153 171 178 174 169 189 201 181 182 189 186 170 205 126 107 115 120 125 128 138 138 124 118 107 95 85 71 50 35 31 25 18 10 357 351 348 339 324 318 313 306 300 296
148 127 133 146 154 151 170 212 347 321 273 166 197 174 97 118 125 135 143 151 155 140 132 123 108 91 75 61 46 35 31 31 24 13 5 5 2 358 347 341 341 337 334 330
110 117 133 133 135 34 102 144 150 183 234 236 189 184 182 174 170 167 163 162 149 139 133 121 109 95 77 64 50 41 37 34 27 19 14 16 9 4 359 2 3 1 2 4
103 117 134 159 193 178 158 162 200 239 282 279 218 160 95 169 169 168 159 143 136 131 120 111 104 99 91 74 58 49 42 36 29 21 21 24 18 13 16 23 20 17 21 21
106 122 129 141 96 317 235 201 187 196 247 234 270 10 33 141 143 143 133 128 126 120 114 112 110 103 91 75 62 52 46 38 30 26 33 33 27 27 30 28 25 27 33 35
102 119 127 147 184 208 230 227 217 191 349 271 255 130 90 110 118 125 130 138 136 134 131 132 124 107 91 76 66 60 54 43 36 36 41 40 37 36 37 34 34 37 41 44
15 146 180 153 136 162 191 203 200 177 196 235 227 148 159 147 148 152 153 152 145 143 141 136 124 112 100 88 74 66 58 46 46 51 52 48 45 44 45 45 46 47 50 53
316 146 116 46 58 149 191 197 199 202 216 231 332 150 178 174 167 162 154 147 151 149 149 148 137 122 114 100 85 75 66 53 59 64 59 54 53 53 54 55 54 54 56 60
302 97 124 208 193 212 236 224 211 211 223 243 277 290 175 143 144 155 161 165 176 166 157 147 139 128 117 108 98 90 80 67 71 72 69 65 63 62 61 62 62 63 63 62
208 186 214 211 151 251 250 225 213 208 203 211 225 222 156 151 169 173 171 176 176 157 147 144 141 129 116 112 108 102 92 81 80 77 72 71 73 71 69 72 71 69 68 69
249 231 239 278 184 244 206 59 190 206 216 213 220 209 167 151 143 129 135 157 149 141 141 139 134 127 123 116 111 106 95 90 89 84 80 81 83 82 81 80 76 72 71 73
296 247 244 252 262 265 173 147 151 183 219 212 214 214 160 117 5 186 106 100 113 119 122 124 123 125 123 120 121 115 106 100 97 94 90 88 92 92 89 86 81 79 81 77
267 276 264 233 258 279 104 113 93 185 218 160 179 182 170 153 205 180 126 109 107 106 109 115 120 121 121 120 121 118 116 110 106 103 99 95 97 98 95 91 87 83 84 83
195 212 227 240 250 279 114 135 151 203 132 73 94 117 134 148 134 136 131 124 125 123 123 125 127 125 123 125 125 122 119 116 114 110 107 103 101 103 104 99 95 97 97 93
191 202 204 207 229 239 136 147 167 100 85 74 76 77 82 94 113 133 138 138 137 136 139 142 134 127 127 133 131 127 126 121 119 118 115 112 113 117 121 119 116 116 114 105
202 212 204 203 202 128 140 112 96 80 73 61 66 69 89 111 148 156 158 154 155 155 157 153 144 140 139 142 143 144 144 141 135 128 125 124 124 128 135 132 126 118 109 106
202 187 247 271 232 169 160 135 106 82 80 67 60 58 81 112 154 165 166 164 164 165 164 160 156 157 158 156 152 153 153 153 147 144 145 146 143 135 116 102 109 105 93 97
227 173 218 247 242 175 156 135 117 102 90 77 56 41 41 55 208 190 183 175 172 172 168 168 171 170 167 163 159 157 160 160 157 154 152 148 142 135 113 84 70 91 72 95
217 201 206 231 269 150 128 111 96 95 81 57 30 0 3 274 240 221 200 179 173 173 171 175 178 173 170 169 166 164 166 166 161 158 157 155 151 138 132 124 97 87 107 92
Height
1461 1465 1464 1463 1465 1465 1466 1469 1471 1471 1470 1477 1481 1482 1480 1480 1482 1483 1485 1486 1488 1490 1492 1495 1497 1499 1501 1503 1505 1507 1509 1511 1513 1514 1516 1517 1518 1520 1522 1524 1525 1526 1528 1529
1462 1462 1460 1462 1464 1465 1464 1466 1467 1468 1468 1474 1479 1479 1476 1476 1478 1480 1482 1483 1485 1487 1489 1491 1493 1495 1497 1499 1501 1503 1505 1507 1509 1510 1512 1513 1514 1515 1517 1518 1520 1521 1522 1523
1458 1458 1459 1461 1463 1466 1465 1467 1466 1469 1471 1474 1477 1479 1475 1472 1474 1477 1479 1480 1482 1484 1486 1488 1490 1491 1493 1495 1497 1499 1501 1503 1504 1506 1507 1509 1510 1511 1512 1513 1514 1515 1516 1517
1459 1458 1459 1461 1463 1464 1467 1463 1463 1468 1476 1481 1480 1485 1470 1468 1472 1473 1475 1478 1480 1482 1484 1486 1488 1489 1490 1491 1493 1494 1496 1498 1499 1501 1502 1503 1504 1505 1507 1508 1509 1510 1510 1511
1458 1457 1459 1461 1461 1463 1466 1464 1466 1469 1476 1477 1476 1482 1468 1462 1469 1470 1472 1475 1478 1480 1483 1484 1485 1487 1487 1488 1489 1490 1492 1493 1495 1496 1497 1498 1499 1500 1501 1503 1503 1504 1505 1505
1458 1459 1460 1461 1462 1464 1467 1470 1472 1474 1478 1484 1474 1478 1469 1462 1462 1466 1470 1473 1476 1479 1481 1483 1484 1485 1485 1486 1486 1487 1488 1489 1490 1491 1492 1493 1494 1495 1496 1497 1497 1498 1499 1499
1460 1460 1461 1461 1464 1467 1469 1475 1482 1484 1486 1481 1464 1468 1463 1454 1455 1461 1467 1472 1475 1478 1480 1482 1483 1483 1483 1483 1484 1485 1485 1486 1487 1487 1488 1489 1489 1490 1490 1491 1492 1492 1492 1493
1459 1461 1462 1462 1462 1465 1468 1470 1475 1478 1479 1471 1463 1466 1460 1454 1457 1462 1467 1472 1475 1478 1479 1481 1481 1482 1482 1482 1482 1482 1483 1483 1483 1484 1484 1485 1485 1485 1485 1486 1486 1486 1486 1486
1452 1460 1461 1461 1461 1463 1467 1470 1468 1472 1465 1468 1469 1460 1464 1458 1461 1464 1468 1471 1474 1476 1478 1479 1480 1480 1480 1480 1480 1480 1481 1481 1481 1480 1480 1480 1480 1480 1480 1480 1480 1480 1480 1480
1448 1458 1461 1462 1462 1464 1464 1465 1471 1475 1471 1467 1460 1458 1463 1462 1463 1464 1467 1470 1473 1475 1477 1478 1478 1478 1479 1479 1479 1479 1479 1478 1478 1478 1477 1477 1477 1476 1476 1476 1475 1475 1475 1474
1448 1457 1464 1464 1464 1464 1466 1469 1469 1469 1467 1470 1463 1461 1446 1453 1457 1461 1464 1468 1471 1473 1475 1476 1477 1477 1477 1477 1477 1477 1476 1476 1475 1475 1475 1474 1473 1473 1472 1472 1471 1471 1470 1470
1447 1454 1461 1463 1463 1463 1463 1463 1466 1471 1469 1464 1468 1466 1448 1451 1456 1460 1463 1467 1470 1472 1473 1474 1475 1475 1476 1475 1475 1475 1474 1474 1473 1473 1472 1471 1471 1470 1469 1469 1468 1467 1467 1466
1447 1455 1463 1467 1469 1466 1464 1462 1461 1465 1470 1467 1467 1466 1452 1454 1457 1461 1464 1466 1469 1470 1472 1473 1474 1474 1474 1474 1473 1473 1472 1472 1471 1471 1470 1469 1469 1468 1467 1466 1465 1465 1464 1463
1447 1452 1457 1458 1455 1458 1461 1460 1460 1466 1472 1465 1459 1460 1456 1457 1459 1461 1463 1465 1467 1469 1470 1471 1472 1472 1472 1472 1471 1471 1470 1470 1469 1469 1468 1467 1467 1466 1465 1464 1463 1462 1462 1461
1448 1452 1452 1452 1450 1452 1454 1456 1459 1463 1463 1463 1455 1454 1454 1455 1457 1459 1462 1464 1466 1467 1468 1469 1470 1470 1470 1470 1470 1469 1468 1468 1467 1467 1466 1466 1465 1464 1464 1463 1462 1462 1461 1460
1448 1451 1452 1454 1451 1452 1453 1453 1454 1457 1458 1457 1456 1455 1450 1452 1455 1458 1460 1461 1463 1464 1465 1466 1467 1467 1467 1467 1467 1467 1466 1466 1466 1465 1465 1465 1464 1463 1463 1462 1462 1461 1461 1460
1449 1451 1454 1453 1450 1453 1456 1447 1449 1450 1449 1453 1456 1454 1451 1452 1454 1456 1458 1459 1460 1462 1463 1463 1464 1465 1465 1465 1465 1465 1465 1465 1465 1464 1464 1464 1464 1463 1463 1462 1462 1462 1461 1461
1449 1450 1454 1452 1455 1460 1445 1439 1439 1443 1445 1447 1447 1447 1448 1451 1453 1454 1456 1457 1458 1459 1460 1461 1461 1462 1462 1463 1463 1463 1463 1463 1464 1464 1464 1464 1463 1463 1463 1463 1463 1463 1463 1463
1448 1450 1453 1454 1453 1446 1441 1439 1440 1442 1443 1442 1444 1446 1448 1450 1451 1453 1453 1454 1455 1456 1457 1458 1459 1460 1460 1461 1461 1462 1462 1463 1463 1463 1463 1463 1464 1464 1464 1464 1464 1464 1465 1465
1449 1450 1454 1453 1455 1448 1442 1440 1439 1442 1443 1439 1440 1444 1446 1448 1452 1452 1452 1453 1453 1454 1455 1456 1457 1457 1458 1459 1460 1461 1461 1462 1462 1463 1464 1464 1465 1465 1465 1466 1466 1466 1467 1467
1451 1452 1454 1453 1451 1444 1440 1439 1441 1446 1444 1441 1441 1443 1445 1447 1449 1451 1450 1451 1452 1452 1453 1454 1455 1456 1456 1458 1459 1460 1461 1461 1462 1463 1464 1465 1466 1466 1467 1467 1468 1468 1468 1468
1447 1448 1448 1448 1451 1449 1440 1440 1442 1443 1441 1441 1442 1443 1445 1446 1447 1448 1449 1449 1450 1450 1451 1452 1453 1454 1455 1456 1458 1459 1460 1461 1462 1464 1465 1466 1467 1468 1468 1469 1469 1469 1469 1469
1440 1441 1441 1443 1444 1439 1438 1439 1440 1441 1442 1442 1443 1444 1444 1445 1446 1447 1447 1447 1448 1448 1449 1450 1451 1452 1454 1455 1457 1458 1460 1461 1463 1464 1466 1467 1468 1468 1469 1469 1470 1470 1470 1470
1436 1436 1438 1438 1436 1436 1437 1438 1439 1440 1441 1442 1442 1443 1443 1444 1444 1445 1445 1445 1446 1446 1447 1448 1449 1451 1452 1454 1455 1458 1459 1461 1463 1465 1466 1467 1468 1469 1469 1470 1470 1470 1470 1470
1434 1435 1436 1436 1435 1435 1436 1437 1438 1439 1440 1441 1441 1441 1442 1442 1442 1442 1443 1443 1443 1444 1445 1446 1448 1449 1451 1452 1454 1457 1459 1461 1463 1465 1466 1467 1468 1469 1469 1470 1470 1470 1470 1470
1432 1433 1435 1435 1432 1433 1435 1435 1437 1438 1439 1439 1439 1440 1440 1440 1440 1440 1440 1440 1441 1441 1443 1444 1445 1447 1449 1451 1453 1456 1458 1460 1462 1464 1465 1466 1467 1468 1469 1469 1469 1469 1469 1469